Flag for Nepal Weather past 2 weeks in Pokhara, Nepal

Now
68 °F

Passing clouds.


Feels Like: 68 °F
Forecast: 62 / 86 °F
Wind: 3 mph from South

Location: Kathmandu Airport

Current Time: Aug 3, 2015 at 4:32:06 AM

Latest Report: Aug 3, 2015 at 2:35 AM


Visibility: 4 mi

Pressure: 29.92 "Hg (27.11 "Hg at 847m altitude)

Humidity: 94%

Dew point: 66 °F

Historic Weather in Pokhara — Graph

°F

Pokhara temperature yesterday

Maximum temperature yesterday: 79 °F (at 1:35 PM)
Minimum temperature yesterday: 66 °F (at 2:35 AM)
Average temperature yesterday: 72 °F

Past Weeks' High & Low Weather Summary

 TemperatureHumidityPressure
High86 °F (Jul 27, 1:35 PM)100% (Jul 19, 7:35 PM)30.01 "Hg (Jul 19, 7:35 PM)
Low66 °F (Jul 25, 7:35 PM)49% (Jul 27, 1:35 PM)29.71 "Hg (Jul 19, 3:35 PM)
Average73 °F85%29.86 "Hg
* Reported Jul 19 2:35 AM — Aug 3 2:35 AM, Pokhara, Weather by CustomWeather, © 2015

Note: Actual official high and low records may vary slightly from our data, if they occured in-between our weather recording intervals... More about our weather records

Advertising

Pokhara weather history for previous 24 hours

 ConditionsComfort  
Time TempWeatherWind HumidityBarometerVisibility
2:35 AM
Mon, Aug 3
68 °FPassing clouds.3 mph94%29.92 "Hg4 mi
1:35 AM68 °FPassing clouds.3 mph94%29.92 "Hg4 mi
12:35 AM68 °FPassing clouds.2 mph94%29.92 "Hg4 mi
11:35 PM
Sun, Aug 2
68 °FPassing clouds.2 mph94%29.92 "Hg4 mi
10:35 PM70 °FPassing clouds.3 mph88%29.92 "Hg4 mi
9:35 PM70 °FPartly cloudy.5 mph94%29.92 "Hg4 mi
8:35 PM72 °FPartly cloudy.No wind88%29.92 "Hg4 mi
7:35 PM72 °FBroken clouds.No wind88%29.92 "Hg4 mi
6:35 PM72 °FBroken clouds.3 mph88%29.89 "Hg4 mi
5:35 PM72 °FRain. Broken clouds.9 mph88%29.89 "Hg4 mi
4:35 PM77 °FBroken clouds.7 mph69%29.89 "Hg5 mi
3:35 PM79 °FBroken clouds.7 mph65%29.89 "HgN/A
2:35 PM79 °FBroken clouds.8 mph65%29.89 "HgN/A
1:35 PM79 °FBroken clouds.9 mph65%29.92 "HgN/A
12:35 PM77 °FBroken clouds.5 mph74%29.95 "HgN/A
11:35 AM77 °FBroken clouds.5 mph69%29.98 "Hg5 mi
10:35 AM75 °FBroken clouds.2 mph78%29.98 "Hg5 mi
9:35 AM73 °FBroken clouds.3 mph83%30.01 "Hg4 mi
8:35 AM72 °FBroken clouds.3 mph88%29.98 "Hg4 mi
7:35 AM68 °FBroken clouds.5 mph94%29.98 "Hg4 mi
6:35 AM68 °FBroken clouds.No wind94%29.95 "Hg4 mi
5:35 AM66 °FPartly cloudy.No wind100%29.92 "Hg4 mi
4:35 AM66 °FLight rain. Partly cloudy.No wind100%29.92 "Hg3 mi
Weather by CustomWeather, © 2015

See weather overviewHow to use our weather pages